RH
7 8 8 8 6 8 55 78 98 96 94 100 93 97 54 23 18 16 17 18 17 17 17 20 21 22 38
6 6 7 8 8 8 5 8 31 42 67 100 100 93 86 66 44 20 15 16 18 18 17 19 21 22 29
6 6 6 6 7 9 9 8 6 4 6 15 65 80 100 100 90 61 30 16 16 18 19 20 21 22 24
9 8 7 6 6 6 6 8 8 7 5 6 44 80 94 99 100 88 78 44 25 19 19 21 21 22 23
8 10 10 8 7 6 6 6 7 8 8 6 8 60 96 92 98 100 99 87 46 27 24 24 23 22 24
8 8 10 13 12 8 6 5 5 6 7 7 7 27 84 98 99 99 98 100 86 52 30 26 26 24 24
14 12 10 10 9 12 12 6 4 4 4 5 8 6 22 92 100 99 99 100 100 91 79 30 26 24 25
18 17 13 11 11 12 10 13 10 3 3 4 4 7 6 6 16 80 98 98 100 83 97 63 27 29 26
25 23 22 22 18 13 13 14 13 12 4 3 3 3 6 7 6 41 82 99 99 90 100 87 36 30 31
34 32 28 25 21 21 20 16 16 13 13 6 4 3 3 5 7 7 51 96 99 99 100 100 68 30 38
36 36 36 34 32 29 26 23 21 16 18 14 5 4 4 3 5 7 8 42 98 98 99 100 64 33 46
52 51 49 43 39 36 35 32 30 25 22 21 10 6 5 4 3 5 8 14 78 98 98 99 86 46 54
60 60 57 48 42 39 38 37 33 31 28 24 14 9 7 6 4 3 7 10 59 96 97 98 98 64 67
59 68 65 56 45 42 37 35 34 32 28 23 15 11 8 7 6 5 5 10 32 96 97 97 98 91 78
62 70 67 58 48 41 38 34 32 32 29 22 13 11 9 7 6 6 7 12 46 84 96 97 97 98 93
71 70 66 60 51 42 34 32 31 30 26 23 15 12 9 7 6 7 7 16 34 97 96 96 97 98 98
60 58 55 52 42 33 30 28 24 24 24 22 16 11 11 10 7 10 12 20 33 100 96 96 97 97 98
Wind_Speed
27 29 29 27 27 26 29 28 30 30 33 39 48 34 38 38 39 40 37 36 36 33 30 26 23 22 20
25 28 32 32 31 29 29 31 35 38 41 39 37 47 52 43 38 40 40 38 38 36 34 30 26 23 21
24 26 28 32 33 33 32 32 34 35 34 32 47 43 52 40 38 40 42 41 39 39 37 35 29 25 24
27 26 28 31 34 36 35 35 35 36 37 34 35 39 40 51 41 46 45 40 39 39 40 36 33 28 26
31 30 30 31 32 35 37 38 35 36 38 37 34 39 40 42 40 35 45 46 41 39 38 38 36 31 28
33 32 31 32 34 35 35 38 41 36 40 37 38 36 40 45 46 37 43 46 48 41 37 39 37 34 30
40 39 37 36 36 35 38 39 39 40 46 43 37 38 41 47 50 46 41 34 41 45 39 39 40 37 33
44 43 42 42 42 39 37 40 41 40 44 48 42 41 40 41 47 51 46 44 44 49 46 43 42 39 36
46 46 47 48 47 46 45 45 41 41 44 48 44 47 43 42 43 44 47 47 37 52 48 46 44 42 39
48 48 48 49 51 51 50 50 49 42 45 48 47 46 49 44 43 42 45 52 44 41 42 50 49 46 40
53 51 50 50 49 52 52 53 53 50 45 52 49 46 47 48 43 41 41 49 48 47 44 54 51 46 42
56 53 51 52 52 53 52 53 53 52 48 54 53 50 48 45 45 41 39 41 46 42 43 46 42 42 45
54 54 53 53 53 53 52 53 52 50 48 53 54 51 49 46 43 42 40 40 42 43 37 43 45 40 45
56 55 54 54 54 53 54 51 51 49 49 51 48 50 51 47 44 39 39 38 36 46 37 38 40 47 41
58 54 52 53 54 54 52 50 52 49 49 48 45 47 50 46 44 39 39 38 35 40 40 37 41 41 43
57 56 54 53 54 55 54 53 51 48 47 46 42 43 47 45 44 39 39 39 37 35 41 38 39 41 44
57 56 55 55 54 55 54 56 51 47 47 45 40 40 45 45 40 38 41 39 38 39 41 39 38 43 42
Wind_Direction
298 300 304 301 300 294 280 276 271 268 271 260 257 267 263 263 260 260 260 263 265 267 269 270 273 278 288
292 295 298 300 299 297 290 284 275 272 265 262 257 257 264 256 260 259 257 257 260 264 266 268 269 272 277
286 288 288 291 294 296 294 291 287 287 288 275 259 266 251 255 256 261 260 254 254 258 263 264 265 267 270
295 290 284 283 285 284 286 292 292 292 289 286 278 267 268 265 254 255 258 261 256 252 258 264 263 264 266
294 293 291 287 282 284 290 287 290 292 290 291 285 269 267 266 261 259 256 258 258 257 253 256 259 260 261
296 297 295 292 291 287 283 286 285 283 287 285 283 273 266 261 263 260 251 256 258 259 257 253 254 254 256
296 296 297 298 296 292 289 285 284 286 286 281 279 276 269 263 260 261 255 254 248 255 262 258 252 251 252
293 295 295 293 293 292 291 286 283 284 286 284 283 280 272 272 270 264 264 264 252 253 254 257 253 247 248
287 290 292 293 292 290 290 289 287 281 283 284 286 285 281 273 275 270 260 260 255 244 252 251 255 245 242
286 287 287 288 288 288 288 287 288 286 281 279 280 281 280 276 271 274 261 256 259 253 251 248 248 246 238
284 284 285 284 282 282 283 283 283 284 284 278 274 272 275 280 277 272 274 259 265 265 255 249 238 242 235
282 281 280 280 280 279 279 278 278 278 277 276 272 270 270 271 275 275 273 270 256 259 254 240 236 233 234
280 279 279 278 277 277 275 275 274 276 275 271 270 267 267 269 272 275 275 272 253 262 261 242 230 236 231
277 275 275 276 276 276 274 274 274 273 270 268 265 265 265 266 270 273 275 270 262 256 271 258 228 228 227
275 275 274 274 275 276 275 274 274 271 266 262 262 263 264 267 266 269 270 267 265 264 269 266 242 226 226
272 273 273 272 272 273 275 274 271 270 267 263 262 257 261 263 265 268 269 264 259 260 264 271 253 227 229
273 273 274 273 271 270 270 271 270 270 268 266 267 266 261 259 261 263 265 261 252 249 258 269 257 239 227